Change the Weather History Date:

Tuesday, April 2, 2013

  Actual Average Record
Temperature  
Mean Temperature 38 °F -  
Max Temperature 48 °F 63 °F - ()
Min Temperature 29 °F 43 °F - ()
Degree Days  
Heating Degree Days 26    
Moisture  
Dew Point 35 °F    
Average Humidity 80    
Maximum Humidity 100    
Minimum Humidity 57    
Precipitation  
Precipitation 0.04 in 0.06 in - ()
Sea Level Pressure  
Sea Level Pressure 29.81 in    
Wind  
Wind Speed 10 mph ()    
Max Wind Speed 21 mph    
Max Gust Speed -    
Visibility 3.5 miles    
Events      
T = Trace of Precipitation, MM = Missing Value Source: Averaged Metar Reports

Daily Weather History Graph

Daily Weather History Graph

Search for Another Location

Airport or City:

Trip Planner

Search our weather history database for the weather conditions in past years. The results will help you decide how hot, cold, wet, or windy it might be!

Date:

Astronomy

Apr. 02, 2013 Rise Set
Actual Time 6:10 AM CEST 7:04 PM CEST
Civil Twilight 5:39 AM CEST 7:35 PM CEST
Nautical Twilight 5:01 AM CEST 8:13 PM CEST
Astronomical Twilight 4:22 AM CEST 8:52 PM CEST
Moon 1:10 AM CEST (4/2) 10:23 AM CEST (4/2)
Length of Visible Light 13h 56m
Length of Day
12h 54m
Waning Gibbous, 59% of the Moon is Illuminated
Apr 2
Waning Gibbous
Apr 3
Last Quarter
Apr 10
New
Apr 18
First Quarter
Apr 25
Full

Hourly Weather History & Observations

Time (CEST) Temp. Windchill Dew Point Humidity Pressure Visibility Wind Dir Wind Speed Gust Speed Precip Events Conditions
2:00 AM 32 °F - 31 °F 97% 29.92 in - SSE 4.5 mph - -  
4:45 AM 30.2 °F 24.3 °F 28.4 °F 93% 29.86 in 2.5 mi NE 5.8 mph - N/A   Partly Cloudy
5:44 AM 30.2 °F 22.6 °F 30.2 °F 100% 29.89 in 1.4 mi East 8.1 mph - N/A   Partly Cloudy
5:45 AM 30.2 °F 24.3 °F 30.2 °F 100% 29.86 in 1.4 mi ENE 5.8 mph - N/A   Partly Cloudy
6:15 AM 30.2 °F 24.3 °F 30.2 °F 100% 29.86 in 1.5 mi NE 5.8 mph - N/A   Partly Cloudy
6:45 AM 30.2 °F 23.4 °F 30.2 °F 100% 29.86 in 1.5 mi NE 6.9 mph - N/A   Partly Cloudy
7:00 AM - - - N/A% - 3.1 mi NE 8.1 mph - N/A   Overcast
7:15 AM 33.8 °F 27.0 °F 32.0 °F 93% 29.86 in 2.5 mi NNE 8.1 mph - N/A   Mostly Cloudy
7:45 AM 35.6 °F 28.6 °F 33.8 °F 93% 29.86 in 3.1 mi NNE 9.2 mph - N/A   Mostly Cloudy
8:00 AM 35 °F - 33 °F 92% 29.88 in 3 mi NNE 8.9 mph - -   Mist
8:15 AM 35.6 °F 27.1 °F 33.8 °F 93% 29.86 in 3.1 mi NNE 12.7 mph - N/A   Mostly Cloudy
8:44 AM 35.6 °F 27.1 °F 33.8 °F 93% 29.86 in 3.7 mi NE 12.7 mph - N/A   Overcast
8:45 AM 37.4 °F 29.8 °F 33.8 °F 87% 29.86 in 3.7 mi NE 11.5 mph - N/A   Overcast
9:15 AM 37.4 °F 29.8 °F 33.8 °F 87% 29.86 in 3.7 mi NNE 11.5 mph - N/A   Overcast
9:45 AM 39.2 °F 31.6 °F 35.6 °F 87% 29.86 in 3.7 mi NNE 12.7 mph - N/A   Overcast
10:02 AM - - - N/A% - 6.2 mi NE 11.5 mph - N/A   Overcast
10:15 AM 41.0 °F 33.5 °F 35.6 °F 81% 29.83 in 4.3 mi NE 13.8 mph - N/A   Mostly Cloudy
10:45 AM 42.8 °F 36.6 °F 35.6 °F 76% 29.86 in 4.3 mi NNE 11.5 mph - N/A   Overcast
11:45 AM 46.4 °F 39.8 °F 37.4 °F 71% 29.83 in - NE 16.1 mph - N/A   Clear
11:59 AM 46.4 °F 39.8 °F 37.4 °F 71% 29.83 in - NE 16.1 mph - N/A   Unknown
12:15 PM 48.2 °F - 37.4 °F 66% 29.80 in - NE 17.3 mph - N/A   Clear
12:45 PM 48.2 °F - 37.4 °F 66% 29.80 in - NE 18.4 mph - N/A   Clear
12:57 PM 48.2 °F - 37.4 °F 66% 29.80 in - NE 20.7 mph - N/A   Unknown
1:00 PM - - - N/A% - 6.2 mi NE 17.3 mph - N/A   Overcast
1:15 PM 48.2 °F - 35.6 °F 62% 29.77 in - NE 19.6 mph - N/A   Clear
1:45 PM 48.2 °F - 37.4 °F 66% 29.77 in - NE 17.3 mph - N/A   Clear
2:00 PM 47 °F - 37 °F 57% 29.77 in 7 mi NE 17.9 mph - -   Partly Cloudy
2:15 PM 48.2 °F - 37.4 °F 66% 29.74 in - NE 17.3 mph - N/A   Clear
2:45 PM 48.2 °F - 37.4 °F 66% 29.74 in - NE 15.0 mph - N/A   Clear
3:15 PM 48.2 °F - 37.4 °F 66% 29.74 in - NE 16.1 mph - N/A   Clear
3:45 PM 48.2 °F - 39.2 °F 71% 29.74 in - NE 17.3 mph - N/A   Clear
4:00 PM - - - N/A% - - North - - N/A   Unknown
4:15 PM 48.2 °F - 37.4 °F 66% 29.71 in - NE 16.1 mph - N/A   Clear
4:45 PM 48.2 °F - 37.4 °F 66% 29.71 in - NE 18.4 mph - N/A   Clear
8:00 PM 45 °F - 40 °F 78% 29.72 in - NNE 13.4 mph - -  
9:43 PM 41.0 °F 32.2 °F 39.2 °F 93% 29.68 in - NNE 18.4 mph - N/A   Unknown